Über ATENEA
Group: 3 satellites
Beschreibung wird geladen...
Live-Position
3D-Globus wird geladen...
Nächste Überflüge
Höhenverlauf
Altitude vs Time
uPlot chart will show altitude changes over time
Zweizeiliger Elementsatz
1 68540U 26069C 26092.51428241 -.00074286 00000-0 -17117+1 0 9998
2 68540 28.3256 359.7521 8353883 77.6495 183.0402 1.01813090 00
Epoch: 2. Apr. 2026 •
Age: 39 hours
Aktueller Status
Höhe 44896.2 km
Geschwindigkeit 2.45 km/s
Subsatellitenpunkt -22.04°S,
15.71°W
Startdatum 1. Apr. 2026
Alter 3 days
Typ other
Technische Details
Klassifizierung Payload
Masse 20.00 kg
Trockenmasse 20.00 kg
Gesamtmasse 20.00 kg
Länge 0.30 m
Durchmesser 0.20 m
Spannweite 0.30 m
Form Box
Hersteller UNLP/CONAE
Bus-Typ Cubesat 12U
Phasenstatus In Orbit
Besitzer/Staat CONAE/AR
Große Konstellationen
Loading constellations...